Northern Expedition — CFN5364 — position and weather

sailwx.info

Track history (hours):
 
Tides and Currents Weather Stations Pressure Air Temp Water Temp Dewpoint Dewpoint Depression Visibility Wind Speed Wind Dir Waves Ship Positions

Northern Expedition

Last reported at 2014-Nov-23 05:15 UTC. Time now 2014-Nov-23 13:24 UTC.
Position N 51°31' W 127°52'.

Length 151 m; draft 5 m.

Type: Ship. MMSI: 316014054.

Date/timePositionNaut miles runAvg speedWind from/ knotsBaromVisibWave heightAir tempDewpointWater temp
2014-Nov-23 05:15N 51°31' W 127°52'1014.9
2014-Nov-23 04:33N 51°21' W 127°52'1716.9
2014-Nov-23 03:32N 51°04' W 127°47'1716.9
2014-Nov-23 02:34N 50°51' W 127°31'8 7.0
2014-Nov-23 01:27N 50°44' W 127°27'0 0.0
2014-Nov-23 00:33N 50°44' W 127°27'0 0.0
2014-Nov-22 23:33N 50°44' W 127°27'0 0.0
2014-Nov-22 22:33N 50°44' W 127°27'0 0.0
2014-Nov-22 21:26N 50°44' W 127°27'0 0.0
2014-Nov-22 20:15N 50°44' W 127°27'0 0.0
2014-Nov-22 19:33N 50°44' W 127°27'0 0.0
2014-Nov-22 18:33N 50°44' W 127°27'0 0.0
2014-Nov-22 17:33N 50°44' W 127°27'1 0.5
2014-Nov-22 16:33N 50°44' W 127°28'1212.5
2014-Nov-22 15:34N 50°54' W 127°39'1414.3
2014-Nov-22 14:34N 51°07' W 127°49'1914.3
2014-Nov-22 13:16N 51°25' W 127°51'19310.7
2014-Nov-21 19:16N 54°15' W 130°21'2 3.4
2014-Nov-21 18:34N 54°18' W 130°21'0 0.0
2014-Nov-21 17:33N 54°18' W 130°21'2 0.1
2014-Nov-20 18:14N 54°16' W 130°22'2 2.4
2014-Nov-20 17:33N 54°18' W 130°21'0 0.0
2014-Nov-20 16:33N 54°18' W 130°21'0 0.0
2014-Nov-20 15:33N 54°18' W 130°21'0 0.0
2014-Nov-20 14:33N 54°18' W 130°21'0 0.0
2014-Nov-20 13:33N 54°18' W 130°21'0 0.0
2014-Nov-20 12:33N 54°18' W 130°21'0 0.0
2014-Nov-20 11:33N 54°18' W 130°21'0 0.0
2014-Nov-20 10:33N 54°18' W 130°21'0 0.0
2014-Nov-20 09:33N 54°18' W 130°21'0 0.0
2014-Nov-20 08:33N 54°18' W 130°21'0 0.0
2014-Nov-20 07:33N 54°18' W 130°21'0 0.0
2014-Nov-20 06:33N 54°18' W 130°21'0 0.0
2014-Nov-20 05:33N 54°18' W 130°21'0 0.0
2014-Nov-20 04:33N 54°18' W 130°21'0 0.0
2014-Nov-20 03:33N 54°18' W 130°21'0 0.0
2014-Nov-20 02:33N 54°18' W 130°21'0 0.0
2014-Nov-20 01:33N 54°18' W 130°21'0 0.0
2014-Nov-20 00:34N 54°18' W 130°21'0 0.0
2014-Nov-19 23:33N 54°18' W 130°21'0 0.0
2014-Nov-19 22:33N 54°18' W 130°21'0 0.0
2014-Nov-19 21:33N 54°18' W 130°21'0 0.0
2014-Nov-19 20:33N 54°18' W 130°21'0 0.0
2014-Nov-19 19:33N 54°18' W 130°21'0 0.0
2014-Nov-19 18:33N 54°18' W 130°21'0 0.0
2014-Nov-19 17:33N 54°18' W 130°21'0 0.0
2014-Nov-19 16:33N 54°18' W 130°21'0 0.0
2014-Nov-19 02:33N 54°18' W 130°21'0 0.0
2014-Nov-19 01:33N 54°18' W 130°21'1 1.3
2014-Nov-19 00:33N 54°17' W 130°22'1 0.0
2014-Nov-17 06:12N 54°16' W 130°21'2 3.6
2014-Nov-17 05:33N 54°18' W 130°21'0 0.0
2014-Nov-17 04:33N 54°18' W 130°21'0 0.0
2014-Nov-17 03:33N 54°18' W 130°21'0 0.0
2014-Nov-17 02:33N 54°18' W 130°21'0 0.0
2014-Nov-17 01:33N 54°18' W 130°21'0 0.0
2014-Nov-17 00:34N 54°18' W 130°21'1 0.7
2014-Nov-16 23:33N 54°17' W 130°22'20810.9
2014-Nov-16 04:32N 51°10' W 127°50'1515.8
2014-Nov-16 03:33N 50°56' W 127°41'1514.8
2014-Nov-16 02:32N 50°44' W 127°28'0 0.3
2014-Nov-16 01:33N 50°44' W 127°27'0 0.0
2014-Nov-16 00:33N 50°44' W 127°27'0 0.0
2014-Nov-15 23:32N 50°44' W 127°27'0 0.0
2014-Nov-15 22:32N 50°44' W 127°27'0 0.0
2014-Nov-15 21:33N 50°44' W 127°27'0 0.0
2014-Nov-15 20:33N 50°44' W 127°27'0 0.0
2014-Nov-15 19:33N 50°44' W 127°27'0 0.0
2014-Nov-15 18:33N 50°44' W 127°27'0 0.0
2014-Nov-15 17:33N 50°44' W 127°27'1 1.4
2014-Nov-15 16:32N 50°45' W 127°28'1312.9
2014-Nov-15 15:33N 50°55' W 127°40'1414.3
2014-Nov-15 14:33N 51°08' W 127°51'1914.4
2014-Nov-15 13:13N 51°27' W 127°52'19110.6
2014-Nov-14 19:14N 54°16' W 130°21'2 3.5
2014-Nov-14 18:33N 54°18' W 130°21'0 0.0
2014-Nov-14 17:33N 54°18' W 130°21'0 0.0
2014-Nov-14 16:33N 54°18' W 130°21'0 0.0
2014-Nov-14 15:33N 54°18' W 130°21'0 0.0
2014-Nov-13 15:33N 54°18' W 130°21'0 0.0
2014-Nov-13 14:34N 54°18' W 130°21'0 0.0
2014-Nov-13 13:33N 54°18' W 130°21'0 0.0
2014-Nov-13 12:34N 54°18' W 130°21'0 0.0
2014-Nov-13 11:33N 54°18' W 130°21'0 0.0
2014-Nov-13 10:33N 54°18' W 130°21'0 0.0
2014-Nov-13 09:34N 54°18' W 130°21'0 0.0
2014-Nov-13 08:33N 54°18' W 130°21'0 0.0
2014-Nov-13 07:33N 54°18' W 130°21'0 0.0
2014-Nov-13 06:34N 54°18' W 130°21'0 0.0
2014-Nov-13 05:33N 54°18' W 130°21'  
Track history (hours):
 
Tides and Currents Weather Stations Pressure Air Temp Water Temp Dewpoint Dewpoint Depression Visibility Wind Speed Wind Dir Waves Ship Positions

Northern Expedition

Last reported at 2014-Nov-23 05:15 UTC. Time now 2014-Nov-23 13:24 UTC.
Position N 51°31' W 127°52'.

Length 151 m; draft 5 m.

Type: Ship. MMSI: 316014054.

Date/timePositionNaut miles runAvg speedWind from/ knotsBaromVisibWave heightAir tempDewpointWater temp
2014-Nov-23 05:15N 51°31' W 127°52'1014.9
2014-Nov-23 04:33N 51°21' W 127°52'1716.9
2014-Nov-23 03:32N 51°04' W 127°47'1716.9
2014-Nov-23 02:34N 50°51' W 127°31'8 7.0
2014-Nov-23 01:27N 50°44' W 127°27'0 0.0
2014-Nov-23 00:33N 50°44' W 127°27'0 0.0
2014-Nov-22 23:33N 50°44' W 127°27'0 0.0
2014-Nov-22 22:33N 50°44' W 127°27'0 0.0
2014-Nov-22 21:26N 50°44' W 127°27'0 0.0
2014-Nov-22 20:15N 50°44' W 127°27'0 0.0
2014-Nov-22 19:33N 50°44' W 127°27'0 0.0
2014-Nov-22 18:33N 50°44' W 127°27'0 0.0
2014-Nov-22 17:33N 50°44' W 127°27'1 0.5
2014-Nov-22 16:33N 50°44' W 127°28'1212.5
2014-Nov-22 15:34N 50°54' W 127°39'1414.3
2014-Nov-22 14:34N 51°07' W 127°49'1914.3
2014-Nov-22 13:16N 51°25' W 127°51'19310.7
2014-Nov-21 19:16N 54°15' W 130°21'2 3.4
2014-Nov-21 18:34N 54°18' W 130°21'0 0.0
2014-Nov-21 17:33N 54°18' W 130°21'2 0.1
2014-Nov-20 18:14N 54°16' W 130°22'2 2.4
2014-Nov-20 17:33N 54°18' W 130°21'0 0.0
2014-Nov-20 16:33N 54°18' W 130°21'0 0.0
2014-Nov-20 15:33N 54°18' W 130°21'0 0.0
2014-Nov-20 14:33N 54°18' W 130°21'0 0.0
2014-Nov-20 13:33N 54°18' W 130°21'0 0.0
2014-Nov-20 12:33N 54°18' W 130°21'0 0.0
2014-Nov-20 11:33N 54°18' W 130°21'0 0.0
2014-Nov-20 10:33N 54°18' W 130°21'0 0.0
2014-Nov-20 09:33N 54°18' W 130°21'0 0.0
2014-Nov-20 08:33N 54°18' W 130°21'0 0.0
2014-Nov-20 07:33N 54°18' W 130°21'0 0.0
2014-Nov-20 06:33N 54°18' W 130°21'0 0.0
2014-Nov-20 05:33N 54°18' W 130°21'0 0.0
2014-Nov-20 04:33N 54°18' W 130°21'0 0.0
2014-Nov-20 03:33N 54°18' W 130°21'0 0.0
2014-Nov-20 02:33N 54°18' W 130°21'0 0.0
2014-Nov-20 01:33N 54°18' W 130°21'0 0.0
2014-Nov-20 00:34N 54°18' W 130°21'0 0.0
2014-Nov-19 23:33N 54°18' W 130°21'0 0.0
2014-Nov-19 22:33N 54°18' W 130°21'0 0.0
2014-Nov-19 21:33N 54°18' W 130°21'0 0.0
2014-Nov-19 20:33N 54°18' W 130°21'0 0.0
2014-Nov-19 19:33N 54°18' W 130°21'0 0.0
2014-Nov-19 18:33N 54°18' W 130°21'0 0.0
2014-Nov-19 17:33N 54°18' W 130°21'0 0.0
2014-Nov-19 16:33N 54°18' W 130°21'0 0.0
2014-Nov-19 02:33N 54°18' W 130°21'0 0.0
2014-Nov-19 01:33N 54°18' W 130°21'1 1.3
2014-Nov-19 00:33N 54°17' W 130°22'1 0.0
2014-Nov-17 06:12N 54°16' W 130°21'2 3.6
2014-Nov-17 05:33N 54°18' W 130°21'0 0.0
2014-Nov-17 04:33N 54°18' W 130°21'0 0.0
2014-Nov-17 03:33N 54°18' W 130°21'0 0.0
2014-Nov-17 02:33N 54°18' W 130°21'0 0.0
2014-Nov-17 01:33N 54°18' W 130°21'0 0.0
2014-Nov-17 00:34N 54°18' W 130°21'1 0.7
2014-Nov-16 23:33N 54°17' W 130°22'20810.9
2014-Nov-16 04:32N 51°10' W 127°50'1515.8
2014-Nov-16 03:33N 50°56' W 127°41'1514.8
2014-Nov-16 02:32N 50°44' W 127°28'0 0.3
2014-Nov-16 01:33N 50°44' W 127°27'0 0.0
2014-Nov-16 00:33N 50°44' W 127°27'0 0.0
2014-Nov-15 23:32N 50°44' W 127°27'0 0.0
2014-Nov-15 22:32N 50°44' W 127°27'0 0.0
2014-Nov-15 21:33N 50°44' W 127°27'0 0.0
2014-Nov-15 20:33N 50°44' W 127°27'0 0.0
2014-Nov-15 19:33N 50°44' W 127°27'0 0.0
2014-Nov-15 18:33N 50°44' W 127°27'0 0.0
2014-Nov-15 17:33N 50°44' W 127°27'1 1.4
2014-Nov-15 16:32N 50°45' W 127°28'1312.9
2014-Nov-15 15:33N 50°55' W 127°40'1414.3
2014-Nov-15 14:33N 51°08' W 127°51'1914.4
2014-Nov-15 13:13N 51°27' W 127°52'19110.6
2014-Nov-14 19:14N 54°16' W 130°21'2 3.5
2014-Nov-14 18:33N 54°18' W 130°21'0 0.0
2014-Nov-14 17:33N 54°18' W 130°21'0 0.0
2014-Nov-14 16:33N 54°18' W 130°21'0 0.0
2014-Nov-14 15:33N 54°18' W 130°21'0 0.0
2014-Nov-13 15:33N 54°18' W 130°21'0 0.0
2014-Nov-13 14:34N 54°18' W 130°21'0 0.0
2014-Nov-13 13:33N 54°18' W 130°21'0 0.0
2014-Nov-13 12:34N 54°18' W 130°21'0 0.0
2014-Nov-13 11:33N 54°18' W 130°21'0 0.0
2014-Nov-13 10:33N 54°18' W 130°21'0 0.0
2014-Nov-13 09:34N 54°18' W 130°21'0 0.0
2014-Nov-13 08:33N 54°18' W 130°21'0 0.0
2014-Nov-13 07:33N 54°18' W 130°21'0 0.0
2014-Nov-13 06:34N 54°18' W 130°21'0 0.0
2014-Nov-13 05:33N 54°18' W 130°21'  

Dump ship's entire track history